Kalaeloa, HI

5:45 PM HST on November 17, 2017 (GMT -1000)
Kalaeloa (John Rodgers Field)

Weather History for PHJR - April, 2013

Change the Weather History Date:

Sunday, April 21, 2013

  Actual Average (PHHI) Record (PHHI)
Temperature  
Mean Temperature 72 °F -  
Max Temperature 79 °F 76 °F 96 °F (2015)
Min Temperature 64 °F 62 °F 59 °F (2009)
Cooling Degree Days 6    
Growing Degree Days 22 (Base 50)    
Moisture  
Dew Point 68 °F    
Average Humidity 91    
Maximum Humidity 100    
Minimum Humidity 71    
Precipitation  
Precipitation 0.42 in - - ()
Sea Level Pressure  
Sea Level Pressure 30.04 in    
Wind  
Wind Speed 3 mph (SE)    
Max Wind Speed 12 mph    
Max Gust Speed 22 mph    
Visibility 8 miles    
Events Rain    
Averages and records for this station are not official NWS values.
T = Trace of Precipitation, MM = Missing Value Source: NWS Daily Summary

Daily Weather History Graph

Daily Weather History Graph

Search for Another Location

Airport or City:

Trip Planner

Search our weather history database for the weather conditions in past years. The results will help you decide how hot, cold, wet, or windy it might be!

Date:

Astronomy

Apr. 21, 2013 Rise Set
Actual Time 6:08 AM HST 6:53 PM HST
Civil Twilight 5:45 AM HST 7:16 PM HST
Nautical Twilight 5:18 AM HST 7:43 PM HST
Astronomical Twilight 4:50 AM HST 8:11 PM HST
Moon 3:18 PM HST (4/21) 3:05 AM HST (4/21)
Length of Visible Light 13h 31m
Length of Day
12h 45m
Waxing Gibbous, 82% of the Moon is Illuminated
Apr 21
Waxing Gibbous
Apr 25
Full
May 2
Last Quarter
May 9
New
May 17
First Quarter

Hourly Weather History & Observations

Time (HST) Temp. Dew Point Humidity Pressure Visibility Wind Dir Wind Speed Gust Speed Precip Events Conditions
12:53 AM 68.0 °F 64.9 °F 90% 30.06 in 10.0 mi ENE 3.5 mph - N/A   Clear
1:53 AM 66.9 °F 64.9 °F 93% 30.05 in 10.0 mi Calm Calm - N/A   Scattered Clouds
2:53 AM 66.9 °F 64.9 °F 93% 30.02 in 10.0 mi Calm Calm - N/A   Clear
3:53 AM 66.0 °F 64.9 °F 96% 30.02 in 9.0 mi Calm Calm - N/A   Partly Cloudy
4:53 AM 64.9 °F 64.0 °F 97% 30.02 in 10.0 mi Calm Calm - N/A   Clear
5:53 AM 64.0 °F 64.0 °F 100% 30.04 in 10.0 mi Calm Calm - N/A   Clear
6:53 AM 66.9 °F 66.0 °F 97% 30.05 in 10.0 mi Calm Calm - N/A   Scattered Clouds
7:53 AM 72.0 °F 68.0 °F 87% 30.07 in 10.0 mi Variable 3.5 mph - N/A   Partly Cloudy
8:53 AM 73.9 °F 66.9 °F 79% 30.07 in 10.0 mi Calm Calm - N/A   Clear
9:53 AM 77.0 °F 68.0 °F 74% 30.09 in 10.0 mi SE 3.5 mph - N/A   Clear
10:53 AM 77.0 °F 69.1 °F 76% 30.08 in 9.0 mi Variable 4.6 mph - N/A   Clear
11:53 AM 78.1 °F 69.1 °F 74% 30.07 in 7.0 mi South 5.8 mph - N/A   Clear
12:53 PM 79.0 °F 69.1 °F 72% 30.04 in 8.0 mi SSW 5.8 mph - N/A   Clear
1:53 PM 78.1 °F 68.0 °F 71% 30.03 in 8.0 mi SW 6.9 mph - N/A   Clear
2:30 PM 71.6 °F 69.8 °F 94% 30.00 in 1.8 mi SW 11.5 mph 21.9 mph 0.05 in Rain Heavy Rain
2:38 PM 69.8 °F 68.0 °F 94% 30.00 in 1.2 mi SSW 5.8 mph - 0.10 in Rain Heavy Rain
2:42 PM 71.6 °F 68.0 °F 88% 30.00 in 2.0 mi SW 4.6 mph - 0.10 in Rain Light Rain
2:51 PM 71.6 °F 66.2 °F 83% 30.00 in 7.0 mi West 5.8 mph - 0.10 in Rain Light Rain
2:53 PM 71.1 °F 66.9 °F 87% 30.02 in 9.0 mi West 6.9 mph - 0.10 in Rain Light Rain
3:53 PM 73.0 °F 70.0 °F 90% 30.01 in 10.0 mi Calm Calm - 0.00 in   Mostly Cloudy
4:53 PM 73.0 °F 68.0 °F 84% 30.01 in 10.0 mi Calm Calm - 0.00 in Rain Light Rain
5:53 PM 72.0 °F 69.1 °F 91% 30.00 in 10.0 mi ESE 3.5 mph - 0.00 in   Partly Cloudy
6:53 PM 71.1 °F 69.1 °F 93% 30.02 in 10.0 mi Calm Calm - 0.00 in Rain Light Rain
7:53 PM 70.0 °F 69.1 °F 97% 30.05 in 10.0 mi Calm Calm - 0.00 in   Partly Cloudy
8:53 PM 70.0 °F 70.0 °F 100% 30.07 in 10.0 mi Calm Calm - N/A   Mostly Cloudy
9:21 PM 69.8 °F 69.8 °F 100% 30.05 in 10.0 mi East 3.5 mph - 0.00 in   Mostly Cloudy
9:28 PM 69.8 °F 69.8 °F 100% 30.05 in 10.0 mi Calm Calm - 0.00 in   Scattered Clouds
9:53 PM 70.0 °F 69.1 °F 97% 30.07 in 10.0 mi Calm Calm - 0.00 in   Scattered Clouds
10:01 PM 69.8 °F 69.8 °F 100% 30.05 in 10.0 mi Calm Calm - N/A   Mostly Cloudy
10:13 PM 71.6 °F 69.8 °F 94% 30.05 in 10.0 mi Calm Calm - N/A   Mostly Cloudy
10:50 PM 69.8 °F 69.8 °F 100% 30.05 in 2.5 mi ESE 5.8 mph - 0.09 in Rain Heavy Rain
10:53 PM 70.0 °F 70.0 °F 100% 30.07 in 1.8 mi East 5.8 mph - 0.16 in Rain Heavy Rain
11:02 PM 69.8 °F 69.8 °F 100% 30.05 in 1.5 mi East 5.8 mph - 0.13 in Rain Heavy Rain
11:05 PM 69.8 °F 69.8 °F 100% 30.05 in 2.0 mi East 4.6 mph - 0.14 in Rain Rain
11:15 PM 69.8 °F 69.8 °F 100% 30.05 in 5.0 mi ENE 3.5 mph - 0.16 in Rain Light Rain
11:53 PM 69.1 °F 69.1 °F 100% 30.06 in 8.0 mi ENE 3.5 mph - 0.16 in   Mostly Cloudy